CMP379 SEGU-MPTO

Flight info

Callsign CMP379
Flight time N/A
Altitude 34000
Route TOLAV2 UGUPI UL780 BUXOS SIRIL2
Aircraft B737/M-SDE2E3FGHIRWXY/LB1

Departure

Time 2026-04-26 04:26
Airport José Joaquín de Olmedo International Airport (SEGU)

Arrival

Time N/A
Airport Tocumen International Airport (MPTO)
Time Latitude Longitude Altitude Speed Heading
2026-04-26 03:59 -2.14746 -79.88282 28 ft 0 kts 259°
2026-04-26 04:16 -2.14746 -79.88273 28 ft 2 kts 298°
2026-04-26 04:16 -2.14755 -79.88261 28 ft 2 kts 307°
2026-04-26 04:16 -2.14764 -79.88247 28 ft 2 kts 303°
2026-04-26 04:17 -2.14773 -79.88233 28 ft 2 kts 311°
2026-04-26 04:17 -2.14785 -79.88222 28 ft 2 kts 321°
2026-04-26 04:17 -2.14799 -79.88213 28 ft 2 kts 347°
2026-04-26 04:17 -2.14808 -79.88212 28 ft 0 kts 18°
2026-04-26 04:22 -2.14807 -79.88212 28 ft 1 kts 18°
2026-04-26 04:22 -2.14802 -79.88209 28 ft 2 kts 24°
2026-04-26 04:22 -2.14787 -79.88191 28 ft 3 kts 67°
2026-04-26 04:23 -2.14786 -79.88171 28 ft 3 kts 97°
2026-04-26 04:23 -2.14791 -79.88152 28 ft 3 kts 108°
2026-04-26 04:23 -2.14798 -79.88139 28 ft 3 kts 117°
2026-04-26 04:23 -2.14812 -79.88114 28 ft 5 kts 120°
2026-04-26 04:24 -2.14832 -79.88078 28 ft 7 kts 117°
2026-04-26 04:24 -2.14824 -79.88031 28 ft 8 kts 50°
2026-04-26 04:24 -2.14774 -79.87998 28 ft 10 kts 31°
2026-04-26 04:24 -2.14711 -79.87961 28 ft 11 kts 29°
2026-04-26 04:25 -2.14657 -79.87899 28 ft 13 kts 69°
2026-04-26 04:25 -2.14634 -79.87813 27 ft 13 kts 82°
2026-04-26 04:25 -2.14684 -79.87762 27 ft 12 kts 194°
2026-04-26 04:25 -2.14760 -79.87800 26 ft 12 kts 206°
2026-04-26 04:26 -2.14891 -79.87875 27 ft 46 kts 210°
2026-04-26 04:26 -2.15386 -79.88160 28 ft 116 kts 209°
2026-04-26 04:26 -2.16246 -79.88659 96 ft 163 kts 211°
2026-04-26 04:26 -2.17224 -79.89232 804 ft 158 kts 211°
2026-04-26 04:27 -2.18154 -79.89770 1575 ft 154 kts 211°
2026-04-26 04:27 -2.19113 -79.90330 2068 ft 169 kts 211°
2026-04-26 04:27 -2.19984 -79.91243 2302 ft 201 kts 250°
2026-04-26 04:27 -2.19965 -79.92718 2513 ft 234 kts 291°
2026-04-26 04:28 -2.18894 -79.94041 2820 ft 261 kts 326°
2026-04-26 04:28 -2.17159 -79.94597 3498 ft 267 kts 357°
2026-04-26 04:28 -2.15303 -79.94635 4354 ft 267 kts 360°
2026-04-26 04:28 -2.13448 -79.94674 5244 ft 267 kts 359°
2026-04-26 04:29 -2.11595 -79.94728 6033 ft 270 kts 359°
2026-04-26 04:29 -2.09714 -79.94798 6873 ft 273 kts 358°
2026-04-26 04:29 -2.07799 -79.94882 7642 ft 277 kts 358°
2026-04-26 04:29 -2.05863 -79.94977 8485 ft 280 kts 357°
2026-04-26 04:30 -2.03897 -79.95080 9345 ft 285 kts 357°
2026-04-26 04:30 -2.01905 -79.95190 10167 ft 289 kts 357°
2026-04-26 04:30 -1.99836 -79.95307 10597 ft 310 kts 357°
2026-04-26 04:30 -1.97590 -79.95437 10804 ft 335 kts 357°
2026-04-26 04:31 -1.95222 -79.95576 11335 ft 346 kts 357°
2026-04-26 04:31 -1.92792 -79.95720 12045 ft 351 kts 357°
2026-04-26 04:31 -1.90339 -79.95867 12774 ft 356 kts 357°
2026-04-26 04:31 -1.87842 -79.96017 13492 ft 362 kts 357°
2026-04-26 04:32 -1.85316 -79.96169 14167 ft 366 kts 357°
2026-04-26 04:32 -1.82758 -79.96323 14844 ft 369 kts 357°
2026-04-26 04:32 -1.80178 -79.96479 15521 ft 373 kts 357°
2026-04-26 04:32 -1.77602 -79.96634 16184 ft 377 kts 357°
2026-04-26 04:33 -1.74968 -79.96792 16843 ft 381 kts 357°
2026-04-26 04:33 -1.72303 -79.96952 17493 ft 385 kts 357°
2026-04-26 04:33 -1.69606 -79.97114 18131 ft 389 kts 357°
2026-04-26 04:33 -1.66890 -79.97278 18680 ft 393 kts 357°
2026-04-26 04:34 -1.64138 -79.97443 19232 ft 396 kts 357°
2026-04-26 04:34 -1.61405 -79.97608 19783 ft 399 kts 357°
2026-04-26 04:34 -1.58623 -79.97775 20323 ft 402 kts 357°
2026-04-26 04:34 -1.55815 -79.97944 20861 ft 405 kts 357°
2026-04-26 04:35 -1.52983 -79.98114 21387 ft 409 kts 357°
2026-04-26 04:35 -1.50137 -79.98285 21899 ft 412 kts 357°
2026-04-26 04:35 -1.47261 -79.98458 22405 ft 415 kts 357°
2026-04-26 04:35 -1.44370 -79.98602 22905 ft 418 kts 358°
2026-04-26 04:36 -1.41452 -79.98679 23382 ft 421 kts 359°
2026-04-26 04:36 -1.38514 -79.98727 23807 ft 424 kts 359°
2026-04-26 04:36 -1.35557 -79.98769 24207 ft 426 kts 360°
2026-04-26 04:36 -1.32581 -79.98814 24606 ft 428 kts 360°
2026-04-26 04:37 -1.29591 -79.98865 24996 ft 431 kts 360°
2026-04-26 04:37 -1.26586 -79.98921 25374 ft 433 kts 360°
2026-04-26 04:37 -1.23563 -79.98982 25747 ft 436 kts
2026-04-26 04:37 -1.20556 -79.99044 26101 ft 438 kts
2026-04-26 04:38 -1.17485 -79.99108 26467 ft 441 kts
2026-04-26 04:38 -1.14412 -79.99174 26829 ft 443 kts
2026-04-26 04:38 -1.11313 -79.99240 27177 ft 446 kts
2026-04-26 04:38 -1.08207 -79.99305 27517 ft 448 kts
2026-04-26 04:39 -1.05080 -79.99372 27851 ft 451 kts
2026-04-26 04:39 -1.01925 -79.99438 28186 ft 453 kts
2026-04-26 04:39 -0.98767 -79.99505 28503 ft 456 kts
2026-04-26 04:39 -0.95589 -79.99572 28810 ft 458 kts
2026-04-26 04:40 -0.92393 -79.99640 29132 ft 460 kts
2026-04-26 04:40 -0.89187 -79.99708 29430 ft 462 kts
2026-04-26 04:40 -0.85968 -79.99776 29719 ft 464 kts
2026-04-26 04:40 -0.82724 -79.99844 29991 ft 467 kts
2026-04-26 04:41 -0.79512 -79.99912 30224 ft 469 kts
2026-04-26 04:41 -0.76243 -79.99981 30460 ft 470 kts
2026-04-26 04:41 -0.72968 -80.00050 30730 ft 471 kts
2026-04-26 04:41 -0.69686 -80.00121 31073 ft 470 kts
2026-04-26 04:42 -0.66423 -80.00190 31441 ft 469 kts
2026-04-26 04:42 -0.63163 -80.00259 31788 ft 468 kts
2026-04-26 04:42 -0.59901 -80.00328 32135 ft 468 kts
2026-04-26 04:42 -0.56650 -80.00396 32513 ft 467 kts
2026-04-26 04:43 -0.53400 -80.00465 32877 ft 466 kts
2026-04-26 04:43 -0.50164 -80.00533 33229 ft 466 kts
2026-04-26 04:43 -0.46923 -80.00601 33575 ft 466 kts
2026-04-26 04:43 -0.43721 -80.00669 33961 ft 465 kts
2026-04-26 04:44 -0.40470 -80.00737 33984 ft 469 kts
2026-04-26 04:44 -0.33942 -80.00875 33999 ft 469 kts
2026-04-26 04:45 -0.27470 -80.01013 34006 ft 463 kts
2026-04-26 04:45 -0.21017 -80.01149 34005 ft 463 kts
2026-04-26 04:46 -0.14586 -80.01284 34001 ft 462 kts
2026-04-26 04:46 -0.08156 -80.01416 33999 ft 462 kts
2026-04-26 04:47 -0.01810 -80.00941 34004 ft 459 kts 10°
2026-04-26 04:47 0.04512 -80.00041 33996 ft 459 kts 11°
2026-04-26 04:48 0.14031 -79.98757 33995 ft 460 kts 10°
2026-04-26 04:48 0.20383 -79.97977 33991 ft 460 kts
2026-04-26 04:49 0.26754 -79.97210 33992 ft 461 kts
2026-04-26 04:49 0.33117 -79.96443 33989 ft 461 kts
2026-04-26 04:50 0.39483 -79.95674 33990 ft 461 kts
2026-04-26 04:50 0.45826 -79.94907 33992 ft 462 kts
2026-04-26 04:51 0.52216 -79.94133 33988 ft 462 kts
2026-04-26 04:51 0.58604 -79.93360 33988 ft 463 kts
2026-04-26 04:52 0.65002 -79.92585 33983 ft 463 kts
2026-04-26 04:52 0.71402 -79.91811 33984 ft 463 kts
2026-04-26 04:53 0.77772 -79.91040 33979 ft 463 kts
2026-04-26 04:53 0.84182 -79.90264 33983 ft 463 kts
2026-04-26 04:54 0.90593 -79.89488 33984 ft 464 kts
2026-04-26 04:54 0.97004 -79.88712 33971 ft 464 kts
2026-04-26 04:55 1.03376 -79.87941 33974 ft 464 kts
2026-04-26 04:55 1.09788 -79.87165 33968 ft 464 kts
2026-04-26 04:56 1.16203 -79.86388 33965 ft 464 kts
2026-04-26 04:56 1.22619 -79.85611 33961 ft 464 kts
2026-04-26 04:57 1.29033 -79.84834 33959 ft 463 kts
2026-04-26 04:57 1.35396 -79.84064 33960 ft 463 kts
2026-04-26 04:58 1.41803 -79.83291 33955 ft 463 kts
2026-04-26 04:58 1.48252 -79.82862 33963 ft 464 kts
2026-04-26 04:59 1.54716 -79.82647 33956 ft 465 kts
2026-04-26 04:59 1.61177 -79.82420 33955 ft 464 kts
2026-04-26 05:00 1.67631 -79.82153 33957 ft 464 kts
2026-04-26 05:00 1.74057 -79.81869 33950 ft 464 kts
2026-04-26 05:01 1.80520 -79.81579 33953 ft 464 kts
2026-04-26 05:01 1.86989 -79.81290 33956 ft 465 kts
2026-04-26 05:02 1.93452 -79.81003 33955 ft 465 kts
2026-04-26 05:02 1.99925 -79.80715 33953 ft 466 kts
2026-04-26 05:03 2.06420 -79.80427 33958 ft 467 kts
2026-04-26 05:03 2.12923 -79.80138 33953 ft 468 kts
2026-04-26 05:04 2.19441 -79.79848 33950 ft 469 kts
2026-04-26 05:04 2.25964 -79.79559 33947 ft 470 kts
2026-04-26 05:05 2.32459 -79.79270 33954 ft 470 kts
2026-04-26 05:05 2.39004 -79.78979 33959 ft 471 kts
2026-04-26 05:06 2.45568 -79.78687 33949 ft 472 kts
2026-04-26 05:06 2.52148 -79.78395 33949 ft 472 kts
2026-04-26 05:07 2.58714 -79.78103 33949 ft 473 kts
2026-04-26 05:07 2.65303 -79.77810 33956 ft 473 kts
2026-04-26 05:08 2.71835 -79.77520 33951 ft 473 kts
2026-04-26 05:08 2.78422 -79.77227 33942 ft 473 kts
2026-04-26 05:09 2.85007 -79.76935 33943 ft 473 kts
2026-04-26 05:09 2.90478 -79.76691 33951 ft 473 kts
2026-04-26 05:10 2.97063 -79.76398 33948 ft 473 kts
2026-04-26 05:10 3.03641 -79.76106 33944 ft 473 kts
2026-04-26 05:11 3.10223 -79.75813 33942 ft 473 kts
2026-04-26 05:11 3.16799 -79.75520 33950 ft 473 kts
2026-04-26 05:12 3.23376 -79.75228 33946 ft 473 kts
2026-04-26 05:12 3.29909 -79.74937 33944 ft 473 kts
2026-04-26 05:13 3.36479 -79.74645 33949 ft 473 kts
2026-04-26 05:13 3.43057 -79.74352 33945 ft 473 kts
2026-04-26 05:14 3.49628 -79.74059 33943 ft 473 kts
2026-04-26 05:14 3.56175 -79.73768 33946 ft 473 kts
2026-04-26 05:15 3.62764 -79.73474 33946 ft 473 kts
2026-04-26 05:15 3.69344 -79.73181 33946 ft 473 kts
2026-04-26 05:16 3.75927 -79.72888 33946 ft 473 kts
2026-04-26 05:16 3.82503 -79.72595 33944 ft 473 kts
2026-04-26 05:17 3.89048 -79.72303 33942 ft 473 kts
2026-04-26 05:17 3.95639 -79.72009 33941 ft 473 kts
2026-04-26 05:18 4.02228 -79.71716 33945 ft 473 kts
2026-04-26 05:18 4.08775 -79.71424 33947 ft 474 kts
2026-04-26 05:19 4.15377 -79.71129 33940 ft 474 kts
2026-04-26 05:19 4.21960 -79.70836 33940 ft 474 kts
2026-04-26 05:20 4.28551 -79.70542 33947 ft 474 kts
2026-04-26 05:20 4.35147 -79.70248 33938 ft 474 kts
2026-04-26 05:21 4.41703 -79.69955 33938 ft 474 kts
2026-04-26 05:21 4.48305 -79.69660 33940 ft 474 kts
2026-04-26 05:22 4.54902 -79.69366 33941 ft 474 kts
2026-04-26 05:22 4.61463 -79.69073 33939 ft 474 kts
2026-04-26 05:23 4.68060 -79.68778 33942 ft 474 kts
2026-04-26 05:23 4.74671 -79.68483 33938 ft 474 kts
2026-04-26 05:24 4.81266 -79.68189 33941 ft 474 kts
2026-04-26 05:24 4.87821 -79.67896 33937 ft 474 kts
2026-04-26 05:25 4.94417 -79.67601 33944 ft 474 kts
2026-04-26 05:25 5.01012 -79.67306 33934 ft 474 kts
2026-04-26 05:26 5.07605 -79.67011 33934 ft 474 kts
2026-04-26 05:26 5.14161 -79.66718 33940 ft 474 kts
2026-04-26 05:27 5.20750 -79.66437 33946 ft 474 kts
2026-04-26 05:27 5.27354 -79.66194 33934 ft 474 kts
2026-04-26 05:28 5.33921 -79.65957 33934 ft 474 kts
2026-04-26 05:28 5.40524 -79.65714 33938 ft 475 kts
2026-04-26 05:29 5.47132 -79.65467 33928 ft 475 kts
2026-04-26 05:29 5.53738 -79.65220 33937 ft 475 kts
2026-04-26 05:30 5.60346 -79.64972 33938 ft 475 kts
2026-04-26 05:30 5.66954 -79.64725 33935 ft 475 kts
2026-04-26 05:31 5.73573 -79.64477 33937 ft 475 kts
2026-04-26 05:31 5.80189 -79.64229 33928 ft 476 kts
2026-04-26 05:32 5.86772 -79.63983 33936 ft 476 kts
2026-04-26 05:32 5.93394 -79.63735 33931 ft 476 kts
2026-04-26 05:33 6.00012 -79.63487 33929 ft 476 kts
2026-04-26 05:33 6.06646 -79.63238 33927 ft 476 kts
2026-04-26 05:34 6.13267 -79.62990 33925 ft 476 kts
2026-04-26 05:34 6.19848 -79.62743 33932 ft 476 kts
2026-04-26 05:35 6.26469 -79.62495 33929 ft 476 kts
2026-04-26 05:35 6.33092 -79.62246 33929 ft 476 kts
2026-04-26 05:36 6.39713 -79.61998 33931 ft 476 kts
2026-04-26 05:36 6.46330 -79.61749 33931 ft 476 kts
2026-04-26 05:37 6.52962 -79.61500 33928 ft 476 kts
2026-04-26 05:37 6.59589 -79.61252 33928 ft 476 kts
2026-04-26 05:38 6.66165 -79.61004 33925 ft 476 kts
2026-04-26 05:38 6.72778 -79.60756 33927 ft 476 kts
2026-04-26 05:39 6.79405 -79.60507 33930 ft 476 kts
2026-04-26 05:39 6.86028 -79.60258 33924 ft 476 kts
2026-04-26 05:40 6.92636 -79.60009 33927 ft 476 kts
2026-04-26 05:40 6.99264 -79.59760 33921 ft 476 kts
2026-04-26 05:41 7.05886 -79.59511 33925 ft 476 kts
2026-04-26 05:41 7.12462 -79.59263 33926 ft 476 kts
2026-04-26 05:42 7.19092 -79.59014 33923 ft 476 kts
2026-04-26 05:42 7.25721 -79.58764 33927 ft 476 kts
2026-04-26 05:43 7.32351 -79.58514 33921 ft 477 kts
2026-04-26 05:43 7.38980 -79.58264 33922 ft 477 kts
2026-04-26 05:44 7.45624 -79.58014 33932 ft 477 kts
2026-04-26 05:44 7.52220 -79.57765 33918 ft 478 kts
2026-04-26 05:45 7.58866 -79.57515 33930 ft 478 kts
2026-04-26 05:45 7.65524 -79.57263 33918 ft 478 kts
2026-04-26 05:46 7.72064 -79.57017 33909 ft 455 kts
2026-04-26 05:46 7.75181 -79.56900 33891 ft 440 kts
2026-04-26 05:46 7.78190 -79.56787 33905 ft 425 kts
2026-04-26 05:47 7.81095 -79.56678 33896 ft 411 kts
2026-04-26 05:47 7.83883 -79.56572 33900 ft 398 kts
2026-04-26 05:47 7.86612 -79.56469 33898 ft 385 kts
2026-04-26 05:47 7.89254 -79.56369 33893 ft 373 kts
2026-04-26 05:48 7.91805 -79.56273 33920 ft 362 kts
2026-04-26 05:48 7.94305 -79.56178 33909 ft 359 kts
2026-04-26 05:48 7.99430 -79.55983 33942 ft 378 kts
2026-04-26 05:49 8.07367 -79.55683 33913 ft 381 kts
2026-04-26 05:50 8.12635 -79.55288 33908 ft 378 kts
2026-04-26 05:50 8.17842 -79.54725 33903 ft 374 kts
2026-04-26 05:51 8.23016 -79.54186 33910 ft 372 kts
2026-04-26 05:51 8.28153 -79.53673 33908 ft 370 kts
2026-04-26 05:52 8.33285 -79.53165 33927 ft 371 kts
2026-04-26 05:52 8.38398 -79.52628 33934 ft 372 kts 12°
2026-04-26 05:52 8.40813 -79.51727 33903 ft 370 kts 30°
2026-04-26 05:53 8.43108 -79.50542 33923 ft 372 kts 27°
2026-04-26 05:53 8.47802 -79.48289 33917 ft 375 kts 26°
2026-04-26 05:54 8.52558 -79.46053 33922 ft 377 kts 26°
2026-04-26 05:54 8.57321 -79.43808 33917 ft 378 kts 26°
2026-04-26 05:55 8.62080 -79.41558 33910 ft 377 kts 26°
2026-04-26 05:55 8.66788 -79.39329 33902 ft 374 kts 26°
2026-04-26 05:56 8.71379 -79.37154 33910 ft 372 kts 26°
2026-04-26 05:56 8.76061 -79.34935 33911 ft 370 kts 26°
2026-04-26 05:57 8.80692 -79.32740 33922 ft 369 kts 26°
2026-04-26 05:57 8.85342 -79.30534 33929 ft 369 kts 26°
2026-04-26 05:58 8.90000 -79.28325 33934 ft 370 kts 26°
2026-04-26 05:58 8.94675 -79.26106 33942 ft 371 kts 26°
2026-04-26 05:59 8.98582 -79.24252 33931 ft 373 kts 26°
2026-04-26 05:59 9.04063 -79.21651 33941 ft 375 kts 26°
2026-04-26 06:00 9.08032 -79.19777 33937 ft 376 kts 24°
2026-04-26 06:00 9.10555 -79.19142 33881 ft 375 kts 358°
2026-04-26 06:00 9.13030 -79.19666 33943 ft 368 kts 330°
2026-04-26 06:00 9.15017 -79.21221 33926 ft 360 kts 303°
2026-04-26 06:01 9.16058 -79.23464 33937 ft 351 kts 275°
2026-04-26 06:01 9.15972 -79.25878 33951 ft 343 kts 253°
2026-04-26 06:01 9.15539 -79.28264 33907 ft 350 kts 264°
2026-04-26 06:02 9.15537 -79.33230 33907 ft 353 kts 254°
2026-04-26 06:02 9.14567 -79.35445 33924 ft 344 kts 227°
2026-04-26 06:02 9.12706 -79.36920 33909 ft 341 kts 201°
2026-04-26 06:03 9.08325 -79.38796 33926 ft 344 kts 206°
2026-04-26 06:03 9.04060 -79.40904 33906 ft 338 kts 206°
2026-04-26 06:04 8.99844 -79.42976 33921 ft 338 kts 203°
2026-04-26 06:04 8.95580 -79.45051 33936 ft 341 kts 207°
2026-04-26 06:05 8.91300 -79.47158 33933 ft 342 kts 202°
2026-04-26 06:05 8.87008 -79.49236 33909 ft 342 kts 207°
2026-04-26 06:06 8.82768 -79.51359 33908 ft 341 kts 202°
2026-04-26 06:06 8.78481 -79.53379 33919 ft 339 kts 203°
2026-04-26 06:07 8.74116 -79.55006 33843 ft 342 kts 185°
2026-04-26 06:07 8.71882 -79.55769 33762 ft 349 kts 210°
2026-04-26 06:07 8.69617 -79.56610 33738 ft 350 kts 184°